Total_Precipitation_Accumulation
0.00 0.00 0.01 0.01 0.00 0.00 0.00 0.00 0.01 0.01 0.01 0.03 0.04 0.03 0.01 0.00 0.00 0.00 0.00 0.00 0.00 0.00 0.01 0.01 0.01 0.01 0.01 0.01 0.01 0.01 0.01 0.00 0.00 0.01 0.01 0.02 0.03 0.04 0.04 0.04 0.14 0.14 0.04
0.00 0.00 0.01 0.01 0.00 0.00 0.00 0.00 0.01 0.00 0.00 0.01 0.01 0.01 0.00 0.00 0.00 0.00 0.00 0.00 0.00 0.01 0.01 0.01 0.01 0.01 0.01 0.01 0.01 0.00 0.00 0.00 0.00 0.01 0.01 0.02 0.03 0.05 0.03 0.04 0.13 0.10 0.03
0.00 0.00 0.01 0.01 0.00 0.00 0.01 0.01 0.00 0.00 0.00 0.00 0.00 0.00 0.01 0.01 0.01 0.00 0.00 0.00 0.01 0.01 0.01 0.01 0.01 0.01 0.01 0.01 0.00 0.00 0.00 0.00 0.01 0.01 0.04 0.04 0.02 0.03 0.03 0.03 0.03 0.02 0.02
0.00 0.00 0.00 0.00 0.00 0.00 0.01 0.01 0.01 0.01 0.01 0.01 0.01 0.01 0.01 0.01 0.01 0.01 0.01 0.01 0.01 0.01 0.01 0.01 0.01 0.01 0.01 0.00 0.00 0.00 0.00 0.00 0.01 0.02 0.13 0.11 0.04 0.02 0.02 0.01 0.01 0.01 0.02
0.00 0.00 0.00 0.00 0.00 0.00 0.01 0.01 0.01 0.01 0.01 0.01 0.01 0.01 0.01 0.02 0.02 0.02 0.01 0.01 0.01 0.01 0.01 0.01 0.01 0.01 0.00 0.01 0.01 0.01 0.00 0.00 0.01 0.02 0.08 0.09 0.11 0.05 0.02 0.02 0.02 0.02 0.03
0.00 0.00 0.00 0.00 0.00 0.00 0.01 0.01 0.01 0.01 0.01 0.01 0.01 0.01 0.02 0.03 0.03 0.03 0.02 0.01 0.01 0.01 0.01 0.01 0.01 0.01 0.00 0.00 0.02 0.01 0.01 0.01 0.01 0.02 0.02 0.06 0.15 0.10 0.06 0.08 0.07 0.05 0.04
0.00 0.00 0.01 0.01 0.00 0.00 0.01 0.01 0.01 0.01 0.01 0.01 0.01 0.01 0.01 0.02 0.02 0.02 0.01 0.01 0.02 0.01 0.01 0.02 0.02 0.01 0.01 0.01 0.00 0.00 0.01 0.01 0.02 0.03 0.02 0.06 0.13 0.10 0.12 0.22 0.27 0.21 0.12
0.00 0.00 0.01 0.01 0.01 0.01 0.01 0.01 0.01 0.01 0.01 0.01 0.01 0.01 0.01 0.01 0.02 0.02 0.01 0.01 0.02 0.03 0.02 0.02 0.02 0.01 0.01 0.02 0.02 0.02 0.01 0.01 0.00 0.01 0.01 0.06 0.08 0.06 0.16 0.31 0.42 0.44 0.35
0.00 0.00 0.01 0.01 0.01 0.01 0.01 0.01 0.01 0.01 0.02 0.01 0.01 0.01 0.01 0.01 0.02 0.02 0.03 0.03 0.03 0.04 0.05 0.03 0.02 0.02 0.02 0.02 0.03 0.04 0.04 0.02 0.01 0.01 0.01 0.03 0.04 0.06 0.19 0.33 0.43 0.51 0.51
0.00 0.01 0.01 0.02 0.02 0.01 0.01 0.02 0.02 0.03 0.03 0.02 0.02 0.02 0.02 0.01 0.01 0.02 0.03 0.06 0.07 0.09 0.10 0.07 0.04 0.05 0.07 0.07 0.05 0.05 0.06 0.05 0.02 0.01 0.02 0.02 0.04 0.10 0.25 0.34 0.45 0.55 0.60
0.01 0.02 0.02 0.02 0.02 0.02 0.02 0.03 0.04 0.05 0.04 0.04 0.05 0.04 0.03 0.03 0.06 0.15 0.12 0.18 0.18 0.20 0.19 0.18 0.17 0.20 0.22 0.15 0.13 0.16 0.15 0.06 0.04 0.04 0.02 0.03 0.08 0.17 0.30 0.34 0.42 0.53 0.59
0.01 0.02 0.03 0.03 0.04 0.03 0.03 0.04 0.05 0.06 0.13 0.10 0.16 0.23 0.25 0.30 0.24 0.12 0.21 0.40 0.46 0.47 0.44 0.47 0.59 0.57 0.45 0.33 0.56 0.76 0.27 0.11 0.12 0.07 0.07 0.19 0.30 0.35 0.44 0.43 0.48 0.53 0.57
0.02 0.05 0.06 0.05 0.06 0.06 0.05 0.04 0.07 0.13 0.31 0.28 0.26 0.39 0.51 0.45 0.28 0.15 0.19 0.38 0.60 0.61 0.51 0.67 0.92 0.69 0.67 0.76 0.92 1.06 0.54 0.34 0.20 0.19 0.22 0.42 0.53 0.62 0.70 0.63 0.58 0.61 0.64
0.09 0.13 0.15 0.14 0.13 0.11 0.10 0.11 0.12 0.17 0.26 0.28 0.32 0.29 0.49 0.52 0.36 0.31 0.33 0.38 0.55 0.68 0.84 0.91 1.05 1.04 1.03 0.96 1.01 0.93 0.84 0.73 0.53 0.60 0.73 0.74 0.75 0.79 0.92 0.89 0.77 0.69 0.65
0.19 0.26 0.36 0.38 0.35 0.33 0.34 0.33 0.22 0.22 0.22 0.23 0.29 0.32 0.48 0.62 0.56 0.64 0.64 0.58 0.53 0.80 1.06 1.20 1.06 1.24 1.32 1.10 0.91 0.87 0.84 0.87 1.02 1.11 1.03 1.16 1.08 0.95 1.02 1.08 0.96 0.81 0.72
0.36 0.47 0.67 0.74 0.76 0.82 0.85 0.76 0.59 0.51 0.51 0.51 0.54 0.61 0.75 0.87 0.97 1.04 1.00 0.93 0.82 0.92 1.12 1.26 1.24 1.37 1.24 1.17 0.81 0.80 0.82 0.90 1.01 1.01 0.93 1.26 1.12 0.88 0.86 0.93 0.92 0.85 0.77
0.54 0.80 1.16 1.32 1.37 1.45 1.42 1.29 1.09 0.93 0.95 1.02 1.07 1.17 1.21 1.26 1.36 1.35 1.21 1.08 1.12 1.24 1.31 1.28 1.26 1.31 1.09 0.98 0.80 0.89 0.87 0.79 0.73 0.73 0.74 0.89 0.92 0.74 0.61 0.61 0.71 0.76 0.80
0.98 1.33 1.72 1.99 2.13 2.25 2.20 1.95 1.58 1.39 1.35 1.43 1.52 1.49 1.51 1.53 1.54 1.56 1.27 1.06 1.24 1.35 1.33 1.29 1.16 1.19 1.09 1.04 0.97 0.91 0.92 0.85 0.65 0.60 0.60 0.58 0.58 0.50 0.52 0.50 0.53 0.59 0.74
1.36 1.90 2.45 2.87 3.17 3.31 2.97 2.35 1.97 1.88 1.87 1.88 1.85 1.76 1.69 1.62 1.56 1.66 1.40 1.25 1.34 1.30 1.19 1.13 1.25 1.40 1.28 1.23 1.17 0.98 0.82 0.70 0.55 0.43 0.37 0.32 0.35 0.40 0.49 0.53 0.43 0.44 0.64
1.51 2.16 2.89 3.53 3.74 3.59 3.02 2.49 2.35 2.24 2.03 1.86 1.62 1.45 1.35 1.37 1.37 1.46 1.28 1.23 1.35 1.31 1.15 1.19 1.27 1.35 1.17 1.20 1.14 0.86 0.70 0.51 0.46 0.35 0.25 0.21 0.19 0.17 0.25 0.40 0.53 0.44 0.50
1.77 2.34 2.98 3.46 3.52 3.28 2.92 2.53 2.28 1.95 1.71 1.48 1.25 1.09 1.01 1.00 1.05 1.20 1.08 1.16 1.23 1.15 1.05 1.06 1.11 1.12 0.94 1.16 1.23 0.76 0.46 0.38 0.30 0.24 0.22 0.19 0.15 0.15 0.19 0.32 0.41 0.45 0.46
1.81 2.21 2.50 2.40 2.13 1.99 1.94 1.84 1.59 1.56 1.56 1.49 1.40 1.21 1.03 1.03 1.00 0.96 0.95 0.96 1.00 1.03 0.92 0.87 0.96 0.94 0.77 0.98 1.06 0.88 0.52 0.32 0.19 0.13 0.14 0.13 0.14 0.19 0.21 0.28 0.37 0.41 0.39
1.49 1.64 1.57 1.31 1.03 1.00 1.03 0.99 1.12 1.31 1.43 1.47 1.50 1.41 1.25 1.20 1.16 1.11 1.01 0.93 0.88 0.91 0.89 0.85 0.90 0.89 0.77 0.78 0.87 0.97 0.71 0.40 0.28 0.15 0.16 0.22 0.28 0.33 0.28 0.28 0.32 0.37 0.39
1.01 0.89 0.76 0.66 0.56 0.53 0.53 0.57 0.65 0.86 1.15 1.35 1.53 1.58 1.59 1.50 1.35 1.22 1.10 0.92 0.79 0.77 0.80 0.74 0.77 0.83 0.82 0.70 0.68 0.73 0.73 0.70 0.63 0.32 0.16 0.19 0.35 0.40 0.37 0.33 0.35 0.39 0.42
0.53 0.44 0.39 0.40 0.42 0.42 0.44 0.53 0.55 0.53 0.60 0.62 0.71 0.83 0.99 1.13 1.09 0.95 0.88 0.81 0.72 0.66 0.65 0.69 0.78 0.84 0.84 0.73 0.68 0.66 0.68 0.75 0.74 0.63 0.37 0.33 0.37 0.35 0.33 0.35 0.39 0.47 0.54
0.28 0.25 0.31 0.38 0.46 0.48 0.50 0.52 0.51 0.50 0.56 0.57 0.58 0.62 0.61 0.65 0.67 0.65 0.63 0.65 0.64 0.63 0.62 0.62 0.68 0.76 0.82 0.84 0.82 0.83 0.87 0.84 0.82 0.87 0.73 0.62 0.57 0.47 0.46 0.53 0.60 0.73 0.81